Location: Boone Canyon
(38.3180°N, 119.2504°W)
Time: 18:20:29
(UTC+00:00)

Cosmos 921 Rocket - Pass Details

Date: 18 September 2020
Orbit: 572 x 632 km, 75.8° (Epoch: 19 October)

Event Time Altitude Azimuth Distance (km) Brightness Sun altitude
Exits shadow 12:56:12 13° 257° (WSW) 1,686 4.6 -9.7°
Maximum altitude 12:58:29 19° 295° (WNW) 1,388 4.4 -9.3°
Drops below altitude 10° 13:01:30 10° 342° (NNW) 1,882 5.5 -8.7°
Sets 13:04:14 0° 0° (N) 2,786 6.5 -8.2°
